ASIASAT 6

Last updated on May 23, 2019, 3:05 a.m. UTC

1 40141U 14052A   19142.41573752 -.00000370  00000-0  00000+0 0  9993
2 40141   0.0148 300.2823 0000951 143.3748  65.6672  1.00271461 17268
UTC
Height (km)
Latitude
Longitude
Inclination
Orbital Period
UTC large
Height (km)
Speed (km/s)
/
Latitude / Longitude
Inclination (degrees)
Orbital Period (minutes)
Azimuth
Elevation
Range (km)
Doppler Factor
iOS Compass Heading
iOS Angle

Next 30 passes for location: Hong Kong

Rise time Rise Azimuth (degrees) Set time Set Azimuth (degrees) Duration Max altitude (degrees)

No matching passes for this satellites